Regional Weather Roundup
Issued by NWS Spokane, WA

Home | Current Version | Previous Version | Text Only | Print | Product List | Glossary On
Versions: 1 2 3 4 5 6 7 8 9 10 11 12 13 14 15 16 17 18 19 20 21 22 23 24 25 26 27 28 29 30 31 32 33 34 35 36 37 38 39 40 41 42 43 44 45 46 47 48 49 50
524
NZUS01 KOTX 281505
RWROTX

Eastern Washington/Northern Idaho Roundup
National Weather Service, Spokane WA
700 AM PST TUE FEB 28 2017

Note: "fair" indicated few or no clouds below 12,000 feet with no
significant weather and/or obstructions to visibility.

...Northeast Washington and Northern Idaho Panhandle...

CITY           SKY/WX    TMP DP  RH WIND       PRES   REMARKS
Spokane Intl   PTCLDY    18  16  92 W12       29.72R WCI   5
Spokane Downto PTCLDY    24  21  88 W6        29.75R WCI  17
Coeur d Alene  FLURRIES  26  23  88 S7        29.71R WCI  18
Deer Park      CLOUDY    24  21  88 S6        29.71R WCI  17
Sandpoint      LGT SNOW  28  27  93 S6        29.68R WCI  22
Bonners Ferry  FLURRIES  25  21  86 NW5       29.66R WCI  19

...Southeast Washington and southern Idaho Panhandle...

CITY           SKY/WX    TMP DP  RH WIND       PRES   REMARKS
Walla Walla    CLOUDY    35  31  85 SW9       29.85R WCI  28
Pullman/Moscow LGT SNOW  27  24  89 W15       29.77R FOG     WCI  15
Lewiston       CLOUDY    34  27  75 W6        29.80R WCI  29
Grangeville    CLOUDY    28  27  93 SW13G21   29.71R VSB 3/4 WCI  18

...Columbia Basin...

CITY           SKY/WX    TMP DP  RH WIND       PRES   REMARKS
Ephrata        PTCLDY    26  15  63 NW8       29.83R WCI  18
Moses Lake     CLEAR     22  17  81 W5        29.85R WCI  16
Pasco          PTCLDY    31  27  85 SW5       29.89R WCI  26
Richland       SUNNY     30  28  92 CALM      29.89R
Hermiston      CLEAR     35  31  85 SW14      29.88R WCI  26
Pendleton      MOCLDY    33  28  81 W18       29.84R WCI  22

...East Slopes Cascades...

CITY           SKY/WX    TMP DP  RH WIND       PRES   REMARKS
The Dalles     MOCLDY    37  32  82 W3        29.95R
Yakima         PTCLDY    18  15  88 W7        29.86R WCI   9
Ellensburg     CLOUDY    17  13  84 VRB3      29.82R
Wenatchee      CLOUDY    19  16  88 N5        29.85  WCI  12
Omak           CLEAR     21  12  68 NW12      29.85R WCI   9
Sunnyside      MOSUNNY   24  23  96 NE5       29.87R WCI  18

...Southern British Columbia...

CITY           SKY/WX    TMP DP  RH WIND       PRES   REMARKS

...Western Montana...

CITY           SKY/WX    TMP DP  RH WIND       PRES   REMARKS
Kalispell      CLOUDY    17  15  92 W5        29.60R WCI  10
Libby            N/A     19  18  93 CALM      29.61R
Missoula       CLOUDY    25  23  92 E3        29.65R

...Neighboring Cities...

CITY           SKY/WX    TMP DP  RH WIND       PRES   REMARKS
Seattle        FOG       33  33 100 SE8       29.94R VSB 1/4 WCI  26
Portland       MOCLDY    37  35  92 S6        30.01R
Boise          LGT SNOW  29  27  92 E7        29.86R FOG     WCI  22
Great Falls    CLOUDY    23  13  65 SW10      29.57R WCI  12



USA.gov is the U.S. government's official web portal to all federal, state and local government web resources and services.